KJ6GEA Weather Reports


time (UTC)temp
F
wind
direction
speed
knots
gust
knots
rain 1hr
in
rain 24hr
in
rain mn
in
humidity
%
barometer
mb
20260507060705 55 242 2.6 7.0 0.00 0.00 0.00 89 1019.5
20260507060207 55 237 2.6 7.8 0.00 0.00 0.00 89 1019.6
20260507060201 55 229 1.7 6.1 0.00 0.00 0.00 89 1019.6
20260507055657 55 297 1.7 6.1 0.00 0.00 0.00 89 1019.6
20260507055150 55 258 1.7 7.8 0.00 0.00 0.00 89 1019.6
20260507054148 55 228 2.6 7.8 0.00 0.00 0.00 89 1019.6
20260507053648 56 258 2.6 7.8 0.00 0.00 0.00 88 1019.6
20260507053156 56 277 2.6 7.8 0.00 0.00 0.00 88 1019.8
20260507053148 56 203 1.7 7.8 0.00 0.00 0.00 88 1019.8
20260507052148 56 247 2.6 7.8 0.00 0.00 0.00 88 1019.8
20260507051647 56 249 2.6 7.8 0.00 0.00 0.00 88 1020.0
20260507051149 56 262 2.6 7.8 0.00 0.00 0.00 87 1020.0
20260507050647 56 222 3.5 7.8 0.00 0.00 0.00 87 1020.0
20260507050149 56 240 2.6 7.8 0.00 0.00 0.00 87 1020.0
20260507045648 56 263 2.6 7.0 0.00 0.00 0.00 86 1020.0
20260507045148 56 229 1.7 7.0 0.00 0.00 0.00 86 1020.0
20260507044649 56 252 0.9 4.3 0.00 0.00 0.00 86 1019.7
20260507044144 57 265 0.9 4.3 0.00 0.00 0.00 86 1019.7
20260507044136 57 250 1.7 4.3 0.00 0.00 0.00 86 1019.7
20260507043756 57 230 1.7 5.2 0.00 0.00 0.00 86 1019.7
20260507043743 57 243 0.9 5.2 0.00 0.00 0.00 86 1019.7
20260507042134 57 305 0.9 4.3 0.00 0.00 0.00 86 1019.7
20260507041635 57 296 0.9 3.5 0.00 0.00 0.00 86 1019.5
20260507041628 57 271 1.7 5.2 0.00 0.00 0.00 85 1019.5
20260507040621 57 279 1.7 5.2 0.00 0.00 0.00 85 1019.5
20260507040119 57 296 1.7 6.1 0.00 0.00 0.00 85 1019.5
20260507035621 57 244 2.6 6.1 0.00 0.00 0.00 85 1019.5
20260507035116 57 219 3.5 10.4 0.00 0.00 0.00 85 1019.5
20260507034622 57 283 3.5 7.8 0.00 0.00 0.00 84 1019.5
20260507034615 57 207 3.5 10.4 0.00 0.00 0.00 84 1019.5
20260507033620 58 233 3.5 8.7 0.00 0.00 0.00 83 1019.5
20260507033612 57 229 3.5 7.8 0.00 0.00 0.00 84 1019.5
20260507033112 58 237 3.5 8.7 0.00 0.00 0.00 84 1019.5
20260507032109 58 233 3.5 11.3 0.00 0.00 0.00 83 1019.4
20260507032101 58 238 3.5 8.7 0.00 0.00 0.00 83 1019.5
20260507031103 58 252 3.5 11.3 0.00 0.00 0.00 82 1019.4
20260507030612 58 271 3.5 8.7 0.00 0.00 0.00 82 1019.4
20260507030106 59 211 3.5 8.7 0.00 0.00 0.00 82 1019.4
20260507025609 59 247 4.3 12.2 0.00 0.00 0.00 82 1019.4
20260507025602 59 266 3.5 10.4 0.00 0.00 0.00 82 1019.4
20260507024603 59 281 6.1 13.0 0.00 0.00 0.00 81 1019.4
20260507024558 59 226 5.2 12.2 0.00 0.00 0.00 81 1019.4
20260507023553 60 243 6.1 13.0 0.00 0.00 0.00 80 1019.4
20260507023052 60 245 5.2 12.2 0.00 0.00 0.00 79 1019.4
20260507022546 60 248 6.1 13.0 0.00 0.00 0.00 79 1019.4
20260507022046 60 205 5.2 13.0 0.00 0.00 0.00 79 1019.4
20260507021557 61 255 5.2 12.2 0.00 0.00 0.00 78 1019.5
20260507021046 61 221 5.2 11.3 0.00 0.00 0.00 77 1019.5
20260507020548 62 203 5.2 11.3 0.00 0.00 0.00 77 1019.5
20260507020051 62 227 5.2 13.0 0.00 0.00 0.00 76 1019.5
20260507015539 62 221 6.1 13.0 0.00 0.00 0.00 75 1019.5
20260507015046 63 227 7.0 13.9 0.00 0.00 0.00 74 1019.5
20260507015039 63 210 7.0 13.9 0.00 0.00 0.00 75 1019.5
20260507014659 63 216 7.0 15.6 0.00 0.00 0.00 74 1019.5
20260507013540 64 219 7.0 15.6 0.00 0.00 0.00 73 1019.5
20260507013039 64 210 6.1 12.2 0.00 0.00 0.00 72 1019.5
20260507012540 65 224 5.2 13.0 0.00 0.00 0.00 71 1019.5
20260507012042 66 231 5.2 11.3 0.00 0.00 0.00 70 1019.5
20260507012038 65 210 6.1 13.0 0.00 0.00 0.00 71 1019.5
20260507011059 67 199 5.2 13.0 0.00 0.00 0.00 69 1019.5
20260507011050 67 225 5.2 12.2 0.00 0.00 0.00 69 1019.5
20260507010046 67 227 5.2 13.0 0.00 0.00 0.00 68 1019.5
20260507005537 68 233 5.2 11.3 0.00 0.00 0.00 68 1019.5
20260507005032 68 238 6.1 11.3 0.00 0.00 0.00 67 1019.5
20260507004532 69 236 5.2 10.4 0.00 0.00 0.00 66 1019.5
20260507004032 70 229 4.3 11.3 0.00 0.00 0.00 65 1019.5
20260507003531 70 241 3.5 11.3 0.00 0.00 0.00 63 1019.5
20260507003031 71 254 3.5 9.6 0.00 0.00 0.00 64 1019.5
20260507002533 71 241 4.3 10.4 0.00 0.00 0.00 63 1019.5
20260507002028 71 237 3.5 10.4 0.00 0.00 0.00 62 1019.5
20260507001528 72 195 3.5 9.6 0.00 0.00 0.00 61 1019.4
20260507001027 73 285 3.5 9.6 0.00 0.00 0.00 60 1019.4
20260507000524 73 294 4.3 9.6 0.00 0.00 0.00 60 1019.4
20260507000025 73 221 4.3 10.4 0.00 0.00 0.00 59 1019.5
20260506235523 74 300 2.6 10.4 0.00 0.00 0.00 59 1019.5
20260506235023 73 278 2.6 10.4 0.00 0.00 0.00 61 1019.5
20260506234524 73 264 3.5 12.2 0.00 0.00 0.00 61 1019.4
20260506234023 72 194 4.3 12.2 0.00 0.00 0.00 60 1019.4
20260506233525 73 289 3.5 10.4 0.00 0.00 0.00 60 1019.4
20260506233026 73 217 4.3 11.3 0.00 0.00 0.00 60 1019.4
20260506233019 73 226 4.3 9.6 0.00 0.00 0.00 59 1019.4
20260506232027 74 306 4.3 11.3 0.00 0.00 0.00 57 1019.5
20260506232020 74 232 3.5 11.3 0.00 0.00 0.00 58 1019.4
20260506231030 74 285 4.3 11.3 0.00 0.00 0.00 57 1019.5
20260506230520 74 299 4.3 10.4 0.00 0.00 0.00 58 1019.5
20260506230020 74 324 5.2 11.3 0.00 0.00 0.00 58 1019.5
20260506225520 74 299 5.2 13.0 0.00 0.00 0.00 57 1019.5
20260506225021 74 284 5.2 13.0 0.00 0.00 0.00 58 1019.5
20260506224514 74 271 5.2 10.4 0.00 0.00 0.00 57 1019.6
20260506224013 74 271 6.1 13.0 0.00 0.00 0.00 58 1019.6
20260506223513 74 349 6.1 13.0 0.00 0.00 0.00 57 1019.6
20260506223012 74 299 5.2 13.0 0.00 0.00 0.00 56 1019.7
20260506222510 75 300 4.3 10.4 0.00 0.00 0.00 57 1019.7
20260506222012 75 338 5.2 12.2 0.00 0.00 0.00 57 1019.7
20260506221508 75 314 5.2 12.2 0.00 0.00 0.00 56 1020.0
20260506221016 74 300 5.2 12.2 0.00 0.00 0.00 57 1020.0
20260506221008 75 323 5.2 11.3 0.00 0.00 0.00 57 1020.0
20260506220007 73 300 6.1 12.2 0.00 0.00 0.00 59 1020.0
20260506215507 74 324 5.2 9.6 0.00 0.00 0.00 58 1020.0
20260506215007 75 285 4.3 8.7 0.00 0.00 0.00 57 1020.0
20260506214503 75 338 4.3 10.4 0.00 0.00 0.00 56 1020.0
20260506214002 75 321 5.2 10.4 0.00 0.00 0.00 57 1020.0
20260506213504 74 335 4.3 10.4 0.00 0.00 0.00 58 1020.0
20260506212957 75 15 3.5 8.7 0.00 0.00 0.00 55 1020.0
20260506212459 76 285 2.6 7.8 0.00 0.00 0.00 55 1020.0
20260506211955 75 292 2.6 7.8 0.00 0.00 0.00 56 1020.0
20260506211453 75 300 3.5 8.7 0.00 0.00 0.00 56 1020.0
20260506210950 75 356 2.6 8.7 0.00 0.00 0.00 56 1020.0
20260506210448 75 319 2.6 8.7 0.00 0.00 0.00 58 1020.1
20260506205948 74 8 3.5 8.7 0.00 0.00 0.00 56 1020.1
20260506205448 74 289 3.5 8.7 0.00 0.00 0.00 59 1020.1
20260506204948 74 355 3.5 7.8 0.00 0.00 0.00 55 1020.2
20260506204448 74 331 2.6 6.1 0.00 0.00 0.00 59 1020.2
20260506203946 74 343 2.6 5.2 0.00 0.00 0.00 58 1020.2
20260506203455 73 306 2.6 8.7 0.00 0.00 0.00 58 1020.3
20260506203446 74 302 2.6 8.7 0.00 0.00 0.00 58 1020.3
20260506202455 73 344 2.6 7.0 0.00 0.00 0.00 58 1020.5
20260506202445 73 335 2.6 7.0 0.00 0.00 0.00 57 1020.3
20260506201443 72 0 2.6 6.1 0.00 0.00 0.00 57 1020.5
20260506200949 72 240 3.5 7.8 0.00 0.00 0.00 57 1020.6
20260506200942 71 352 2.6 7.0 0.00 0.00 0.00 61 1020.5
20260506195934 72 304 3.5 8.7 0.00 0.00 0.00 59 1020.6
20260506195435 72 354 3.5 8.7 0.00 0.00 0.00 60 1020.6
20260506194933 71 328 2.6 9.6 0.00 0.00 0.00 62 1020.6
20260506194434 71 0 2.6 9.6 0.00 0.00 0.00 61 1020.6
20260506193928 71 319 2.6 8.7 0.00 0.00 0.00 62 1020.6
20260506193427 70 271 3.5 8.7 0.00 0.00 0.00 63 1020.7
20260506192926 70 339 3.5 9.6 0.00 0.00 0.00 63 1020.7
20260506192418 70 317 3.5 9.6 0.00 0.00 0.00 62 1020.7
20260506191915 70 291 3.5 6.1 0.00 0.00 0.00 64 1020.8
20260506191426 69 307 3.5 7.8 0.00 0.00 0.00 65 1020.8
20260506190917 69 345 4.3 8.7 0.00 0.00 0.00 65 1020.8
20260506190414 68 314 5.2 9.6 0.00 0.00 0.00 64 1020.8
20260506185918 68 0 2.6 6.1 0.00 0.00 0.00 65 1020.8
20260506185912 68 45 4.3 9.6 0.00 0.00 0.00 64 1020.8
20260506184913 69 359 3.5 6.1 0.00 0.00 0.00 65 1020.8
20260506184411 68 321 3.5 6.1 0.00 0.00 0.00 67 1020.8
20260506183912 68 326 3.5 6.1 0.00 0.00 0.00 65 1020.8
20260506183407 68 357 2.6 6.1 0.00 0.00 0.00 67 1020.7
20260506182859 67 357 2.6 6.1 0.00 0.00 0.00 67 1020.7
20260506182358 68 359 3.5 7.8 0.00 0.00 0.00 65 1020.7
20260506181858 67 2 3.5 7.8 0.00 0.00 0.00 67 1020.6
20260506181358 68 1 3.5 6.1 0.00 0.00 0.00 65 1020.6
20260506180857 68 331 2.6 6.1 0.00 0.00 0.00 65 1020.6
20260506180357 68 346 3.5 6.1 0.00 0.00 0.00 69 1020.6
20260506175854 68 300 3.5 6.1 0.00 0.00 0.00 64 1020.6
20260506175355 68 349 2.6 6.1 0.00 0.00 0.00 66 1020.6
20260506174855 68 31 0.9 3.5 0.00 0.00 0.00 68 1020.6
20260506174401 66 39 1.7 3.5 0.00 0.00 0.00 67 1020.6
20260506174355 67 77 0.9 3.5 0.00 0.00 0.00 66 1020.6
20260506173355 66 25 1.7 4.3 0.00 0.00 0.00 68 1020.6
20260506172854 66 2 0.9 4.3 0.00 0.00 0.00 67 1020.6
20260506172355 65 14 1.7 4.3 0.00 0.00 0.00 68 1020.6
20260506171855 65 21 1.7 4.3 0.00 0.00 0.00 68 1020.6
20260506171356 64 6 0.9 3.5 0.00 0.00 0.00 71 1020.6
20260506170851 63 169 0.9 2.6 0.00 0.00 0.00 72 1020.6
20260506170353 64 345 0.9 2.6 0.00 0.00 0.00 69 1020.6
20260506165846 65 230 1.7 5.2 0.00 0.00 0.00 68 1020.6
20260506165345 66 248 1.7 5.2 0.00 0.00 0.00 69 1020.6
20260506164840 64 299 1.7 5.2 0.00 0.00 0.00 71 1020.5
20260506164341 65 320 0.9 4.3 0.00 0.00 0.00 70 1020.5
20260506164330 64 311 0.9 3.5 0.00 0.00 0.00 74 1020.5
20260506163337 62 326 1.7 3.5 0.00 0.00 0.00 75 1020.5
20260506163329 63 254 0.9 3.5 0.00 0.00 0.00 74 1020.5
20260506162328 62 359 1.7 3.5 0.00 0.00 0.00 74 1020.5
20260506161835 61 285 0.9 3.5 0.00 0.00 0.00 76 1020.5
20260506161829 62 349 0.9 3.5 0.00 0.00 0.00 76 1020.5
20260506160834 61 289 0.9 3.5 0.00 0.00 0.00 76 1020.5
20260506160329 60 335 0.9 3.5 0.00 0.00 0.00 78 1020.5
20260506160322 61 320 1.7 3.5 0.00 0.00 0.00 77 1020.5
20260506155319 60 246 0.9 2.6 0.00 0.00 0.00 77 1020.5
20260506154809 60 241 0.9 3.5 0.00 0.00 0.00 79 1020.5
20260506154802 60 306 0.9 3.5 0.00 0.00 0.00 78 1020.5
20260506153755 60 304 1.7 3.5 0.00 0.00 0.00 79 1020.5
20260506153253 60 316 1.7 3.5 0.00 0.00 0.00 80 1020.3
20260506152744 60 307 1.7 4.3 0.00 0.00 0.00 80 1020.3
20260506152240 59 335 1.7 4.3 0.00 0.00 0.00 81 1020.3
20260506151741 59 328 1.7 4.3 0.00 0.00 0.00 82 1020.4
20260506151240 59 300 1.7 4.3 0.00 0.00 0.00 83 1020.4
20260506150739 58 299 0.9 4.3 0.00 0.00 0.00 83 1020.4
20260506150237 58 282 0.9 3.5 0.00 0.00 0.00 84 1020.3
20260506145731 58 220 0.9 2.6 0.00 0.00 0.00 84 1020.3
20260506145232 57 311 0.9 3.5 0.00 0.00 0.00 85 1020.3
20260506144657 57 281 0.9 3.5 0.00 0.00 0.00 85 1020.2
20260506144201 57 223 0.9 2.6 0.00 0.00 0.00 86 1020.2
20260506144157 57 224 0.0 1.7 0.00 0.00 0.00 86 1020.2
20260506143233 56 221 0.9 2.6 0.00 0.00 0.00 86 1020.1
20260506143132 57 222 0.9 2.6 0.00 0.00 0.00 86 1020.1
20260506143127 56 221 0.0 2.6 0.00 0.00 0.00 87 1020.1
20260506141620 56 221 0.0 1.7 0.00 0.00 0.00 87 1020.0
20260506141050 56 221 0.0 2.6 0.00 0.00 0.00 87 1020.0
20260506140545 56 221 0.9 2.6 0.00 0.00 0.00 87 1020.0
20260506140033 56 221 0.9 2.6 0.00 0.00 0.00 87 1019.7
20260506135535 56 215 0.9 2.6 0.00 0.00 0.00 88 1019.7
20260506135033 56 213 0.9 3.5 0.00 0.00 0.00 88 1019.7
20260506134534 56 233 0.9 3.5 0.00 0.00 0.00 88 1019.5
20260506134034 55 238 0.0 2.6 0.00 0.00 0.00 88 1019.5
20260506133532 55 238 0.0 2.6 0.00 0.00 0.00 88 1019.5
20260506133011 55 238 0.0 1.7 0.00 0.00 0.00 88 1019.4
20260506132459 55 238 1.7 3.5 0.00 0.00 0.00 88 1019.4
20260506132453 55 238 0.9 3.5 0.00 0.00 0.00 88 1019.4
20260506131433 55 253 0.9 3.5 0.00 0.00 0.00 88 1019.4
20260506130933 55 228 0.9 4.3 0.00 0.00 0.00 89 1019.4
20260506130440 55 231 0.9 4.3 0.00 0.00 0.00 89 1019.2
20260506125929 55 224 0.9 2.6 0.00 0.00 0.00 89 1019.2
20260506125428 55 220 0.9 2.6 0.00 0.00 0.00 89 1019.2
20260506124933 55 220 0.9 2.6 0.00 0.00 0.00 89 1019.1
20260506124929 55 220 0.9 2.6 0.00 0.00 0.00 89 1019.1
20260506123929 55 224 0.9 2.6 0.00 0.00 0.00 90 1019.1
20260506123428 54 224 0.0 2.6 0.00 0.00 0.00 90 1019.0
20260506122928 54 224 0.0 0.9 0.00 0.00 0.00 90 1019.0
20260506122423 54 224 0.0 0.9 0.00 0.00 0.00 90 1019.0
20260506121917 54 224 0.0 0.9 0.00 0.00 0.00 90 1019.0
20260506121357 54 224 0.0 0.9 0.00 0.00 0.00 90 1019.0
20260506120846 54 224 0.0 1.7 0.00 0.00 0.00 90 1019.0
20260506120320 54 224 0.0 1.7 0.00 0.00 0.00 90 1018.9
20260506115813 54 224 0.0 2.6 0.00 0.00 0.00 89 1018.9
20260506115307 54 224 0.0 2.6 0.00 0.00 0.00 89 1018.9
20260506114807 54 224 0.0 1.7 0.00 0.00 0.00 89 1018.7
20260506114256 54 224 0.0 1.7 0.00 0.00 0.00 89 1018.7
20260506113732 54 224 0.0 1.7 0.00 0.00 0.00 89 1018.7
20260506113209 54 224 0.9 2.6 0.00 0.00 0.00 89 1018.6
20260506112705 55 224 0.9 2.6 0.00 0.00 0.00 89 1018.6
20260506112151 55 224 0.0 1.7 0.00 0.00 0.00 89 1018.6
20260506111638 55 224 0.0 0.9 0.00 0.00 0.00 89 1018.5
20260506111137 55 224 0.0 0.9 0.00 0.00 0.00 89 1018.5
20260506111120 55 224 0.0 0.9 0.00 0.00 0.00 89 1018.5
20260506110728 55 224 0.0 1.7 0.00 0.01 0.00 90 1018.5
20260506105602 55 224 0.9 1.7 0.00 0.01 0.00 90 1018.5
20260506105059 55 224 0.9 1.7 0.00 0.01 0.00 90 1018.5
20260506104601 55 224 0.0 1.7 0.00 0.01 0.00 90 1018.5
20260506104039 55 224 0.0 0.9 0.00 0.01 0.00 90 1018.5
20260506103538 55 224 0.0 0.9 0.00 0.01 0.00 90 1018.5
20260506103033 54 224 0.0 0.9 0.00 0.01 0.00 90 1018.5
20260506102532 54 224 0.0 0.9 0.00 0.01 0.00 89 1018.5
20260506102014 54 224 0.0 0.9 0.00 0.01 0.00 89 1018.5
20260506101515 54 224 0.0 0.9 0.00 0.01 0.00 89 1018.5
20260506101015 55 224 0.0 0.9 0.00 0.01 0.00 89 1018.5
20260506100457 55 224 0.0 0.9 0.00 0.01 0.00 89 1018.5
20260506095950 55 224 0.0 1.7 0.00 0.01 0.00 89 1018.5
20260506095448 55 224 0.9 1.7 0.00 0.01 0.00 89 1018.5
20260506094949 55 224 0.0 1.7 0.00 0.02 0.00 89 1018.5
20260506094447 55 224 0.0 0.9 0.00 0.02 0.00 89 1018.5
20260506093949 55 224 0.0 0.9 0.00 0.02 0.00 89 1018.5
20260506093446 55 224 0.0 0.0 0.00 0.02 0.00 88 1018.5
20260506092939 55 224 0.0 0.0 0.00 0.02 0.00 88 1018.5
20260506092433 55 224 0.0 0.0 0.00 0.02 0.00 88 1018.5
20260506091934 55 224 0.0 0.9 0.00 0.02 0.00 88 1018.5
20260506091355 55 224 0.0 0.9 0.00 0.02 0.00 87 1018.5
20260506090819 56 224 0.0 0.9 0.00 0.02 0.00 87 1018.5
20260506090250 56 224 0.0 1.7 0.00 0.02 0.00 87 1018.5
20260506085737 56 224 0.0 1.7 0.00 0.02 0.00 87 1018.5
20260506085237 56 224 0.0 0.9 0.00 0.03 0.00 87 1018.5
20260506084713 56 224 0.0 0.0 0.00 0.04 0.00 87 1018.5
20260506084208 56 224 0.0 0.9 0.00 0.04 0.00 87 1018.5
20260506083703 56 224 0.0 0.9 0.00 0.04 0.00 87 1018.5
20260506083300 57 224 0.0 1.7 0.00 0.04 0.00 87 1018.5
20260506083153 56 224 0.0 0.9 0.00 0.04 0.00 87 1018.5
20260506083145 57 224 0.0 0.9 0.00 0.04 0.00 87 1018.5
20260506081640 57 224 0.0 2.6 0.00 0.04 0.00 87 1018.5
20260506081140 57 224 0.9 2.6 0.00 0.04 0.00 87 1018.5
20260506080632 57 224 0.9 3.5 0.00 0.04 0.00 87 1018.5
20260506080129 57 229 0.0 1.7 0.00 0.04 0.00 87 1018.5
20260506072538 57 227 0.0 1.7 0.00 0.05 0.00 87 1018.4
20260506072033 57 227 0.0 1.7 0.00 0.05 0.00 87 1018.4
20260506071521 57 227 0.0 0.9 0.00 0.05 0.00 87 1018.2
20260506070956 57 227 0.0 1.7 0.00 0.05 0.00 87 1018.2
20260506070452 57 227 0.0 1.7 0.00 0.05 0.00 87 1018.1
20260506062409 56 300 0.9 3.5 0.00 0.05 0.05 87 1017.9
20260506062405 56 296 0.9 3.5 0.00 0.05 0.05 87 1018.0
20260506061359 56 306 1.7 3.5 0.00 0.05 0.05 87 1017.9
20260506061352 56 290 0.9 3.5 0.00 0.05 0.05 87 1017.9